When you browse on this site, cookies collect data to enhance your experience and personalize the content and advertising you see.
Visit our Privacy Policy to learn more. By continuing to use the site, you agree to this use of cookies and data.
  • In Hungary
  • List of Countries
  • For 7 days
  • Water Temperature
  • Satellite Maps
  • Weather Map
  • News
  • Weather Widgets
  • user-avatar
    Login

    Hourly Weather Armawir

    Today, 17 January, Thursday

    Time Temperature Precipitation Wind Pressure Humidity
    00:00 +2°C° 0 mm 2 mps 679 mmHg 56%
    01:00 +2°C° 0 mm 2 mps 678 mmHg 56%
    02:00 +2°C° 0 mm 2 mps 678 mmHg 56%
    03:00 +3°C° 0 mm 1 mps 677 mmHg 56%
    04:00 +3°C° 0.1 mm 1 mps 677 mmHg 57%
    05:00 +3°C° 0.1 mm 1 mps 677 mmHg 58%
    06:00 +2°C° 0.1 mm 1 mps 677 mmHg 59%
    07:00 +3°C° 0.1 mm 1 mps 677 mmHg 58%
    08:00 +3°C° 0.1 mm 1 mps 678 mmHg 56%
    09:00 +4°C° 0.1 mm 1 mps 678 mmHg 55%
    10:00 +4°C° 0 mm 1 mps 678 mmHg 53%
    11:00 +4°C° 0 mm 2 mps 679 mmHg 51%
    12:00 +5°C° 0 mm 2 mps 679 mmHg 50%
    13:00 +4°C° 0.1 mm 3 mps 679 mmHg 51%
    14:00 +4°C° 0.1 mm 4 mps 679 mmHg 51%
    15:00 +3°C° 0.1 mm 5 mps 680 mmHg 52%
    16:00 +2°C° 0 mm 5 mps 680 mmHg 53%
    17:00 +1°C° 0 mm 5 mps 681 mmHg 53%
    18:00 0°C° 0 mm 5 mps 682 mmHg 53%
    19:00 0°C° 0 mm 5 mps 683 mmHg 53%
    20:00 -1°C° 0 mm 5 mps 684 mmHg 53%
    21:00 -1°C° 0 mm 5 mps 684 mmHg 52%
    22:00 -2°C° 0 mm 4 mps 685 mmHg 52%
    23:00 -2°C° 0 mm 4 mps 685 mmHg 52%

    Tomorrow, 18 January, Friday

    Time Temperature Precipitation Wind Pressure Humidity
    00:00 -1°C° 0 mm 3 mps 686 mmHg 52%
    01:00 -2°C° 0 mm 3 mps 686 mmHg 52%
    02:00 -2°C° 0 mm 3 mps 687 mmHg 52%
    03:00 -4°C° 0 mm 3 mps 687 mmHg 52%
    04:00 -4°C° 0 mm 3 mps 688 mmHg 52%
    05:00 -4°C° 0 mm 3 mps 688 mmHg 51%
    06:00 -4°C° 0 mm 3 mps 688 mmHg 51%
    07:00 -4°C° 0 mm 3 mps 689 mmHg 48%
    08:00 -2°C° 0 mm 3 mps 689 mmHg 46%
    09:00 -2°C° 0 mm 3 mps 690 mmHg 44%
    10:00 -1°C° 0 mm 2 mps 690 mmHg 42%
    11:00 +1°C° 0 mm 2 mps 690 mmHg 40%
    12:00 +2°C° 0 mm 2 mps 689 mmHg 38%
    13:00 +3°C° 0 mm 2 mps 689 mmHg 38%
    14:00 +3°C° 0 mm 2 mps 689 mmHg 37%
    15:00 +3°C° 0 mm 2 mps 689 mmHg 37%
    16:00 +2°C° 0 mm 2 mps 689 mmHg 41%
    17:00 +2°C° 0 mm 1 mps 690 mmHg 45%
    18:00 +1°C° 0 mm 1 mps 691 mmHg 48%
    19:00 0°C° 0 mm 1 mps 691 mmHg 48%
    20:00 -2°C° 0 mm 2 mps 691 mmHg 48%
    21:00 -2°C° 0 mm 2 mps 692 mmHg 48%
    22:00 -3°C° 0 mm 2 mps 692 mmHg 47%
    23:00 -3°C° 0 mm 2 mps 692 mmHg 46%

    Day after tomorrow, 19 January, Saturday

    Time Temperature Precipitation Wind Pressure Humidity
    00:00 -3°C° 0 mm 2 mps 692 mmHg 46%
    01:00 -3°C° 0 mm 2 mps 692 mmHg 45%
    02:00 -4°C° 0 mm 2 mps 692 mmHg 45%
    03:00 -4°C° 0 mm 2 mps 692 mmHg 44%
    04:00 -4°C° 0 mm 2 mps 692 mmHg 43%
    05:00 -4°C° 0 mm 2 mps 692 mmHg 43%
    06:00 -4°C° 0 mm 2 mps 692 mmHg 42%
    07:00 -4°C° 0 mm 2 mps 692 mmHg 40%
    08:00 -3°C° 0 mm 2 mps 692 mmHg 37%
    09:00 -2°C° 0 mm 2 mps 692 mmHg 35%
    10:00 -1°C° 0 mm 2 mps 691 mmHg 32%
    11:00 +2°C° 0 mm 1 mps 691 mmHg 30%
    12:00 +3°C° 0 mm 1 mps 690 mmHg 28%
    13:00 +4°C° 0 mm 1 mps 690 mmHg 27%
    14:00 +4°C° 0 mm 1 mps 690 mmHg 27%
    15:00 +5°C° 0 mm 1 mps 689 mmHg 27%
    16:00 +3°C° 0 mm 1 mps 690 mmHg 30%
    17:00 +1°C° 0 mm 2 mps 690 mmHg 33%
    18:00 -1°C° 0 mm 2 mps 690 mmHg 36%
    19:00 -2°C° 0 mm 2 mps 691 mmHg 36%
    20:00 -2°C° 0 mm 2 mps 691 mmHg 35%
    21:00 -3°C° 0 mm 2 mps 691 mmHg 34%
    22:00 -3°C° 0 mm 2 mps 691 mmHg 34%
    23:00 -3°C° 0 mm 2 mps 691 mmHg 33%

    20 January, Sunday

    Time Temperature Precipitation Wind Pressure Humidity
    00:00 -3°C° 0 mm 2 mps 691 mmHg 32%
    01:00 -3°C° 0 mm 2 mps 691 mmHg 31%
    02:00 -4°C° 0 mm 2 mps 691 mmHg 30%
    03:00 -4°C° 0 mm 2 mps 691 mmHg 30%
    04:00 -4°C° 0 mm 2 mps 691 mmHg 29%
    05:00 -4°C° 0 mm 2 mps 691 mmHg 29%
    06:00 -4°C° 0 mm 2 mps 691 mmHg 28%
    07:00 -3°C° 0 mm 2 mps 691 mmHg 27%
    08:00 0°C° 0 mm 1 mps 691 mmHg 26%
    09:00 +1°C° 0 mm 1 mps 692 mmHg 26%
    10:00 +2°C° 0 mm 1 mps 691 mmHg 25%
    11:00 +3°C° 0 mm 1 mps 691 mmHg 25%
    12:00 +4°C° 0 mm 1 mps 691 mmHg 24%
    13:00 +4°C° 0 mm 1 mps 690 mmHg 24%
    14:00 +4°C° 0 mm 1 mps 690 mmHg 25%
    15:00 +5°C° 0 mm 1 mps 690 mmHg 25%
    16:00 +3°C° 0 mm 1 mps 690 mmHg 28%
    17:00 +2°C° 0 mm 1 mps 690 mmHg 31%
    18:00 +1°C° 0 mm 1 mps 691 mmHg 34%
    19:00 +1°C° 0 mm 1 mps 691 mmHg 34%
    20:00 0°C° 0 mm 1 mps 691 mmHg 34%
    21:00 0°C° 0 mm 1 mps 691 mmHg 34%
    22:00 0°C° 0 mm 1 mps 692 mmHg 34%
    23:00 -1°C° 0 mm 1 mps 692 mmHg 34%

    21 January, Monday

    Time Temperature Precipitation Wind Pressure Humidity
    00:00 -1°C° 0 mm 1 mps 692 mmHg 34%
    01:00 -1°C° 0 mm 1 mps 691 mmHg 35%
    02:00 -1°C° 0 mm 1 mps 691 mmHg 35%
    03:00 -1°C° 0 mm 1 mps 691 mmHg 35%
    04:00 -4°C° 0 mm 2 mps 691 mmHg 35%
    05:00 -4°C° 0 mm 2 mps 691 mmHg 35%
    06:00 -4°C° 0 mm 2 mps 691 mmHg 35%
    07:00 -3°C° 0 mm 2 mps 691 mmHg 33%
    08:00 -1°C° 0 mm 1 mps 692 mmHg 31%
    09:00 0°C° 0 mm 1 mps 692 mmHg 30%
    10:00 +1°C° 0 mm 1 mps 691 mmHg 28%
    11:00 +2°C° 0 mm 1 mps 691 mmHg 27%
    12:00 +3°C° 0 mm 1 mps 690 mmHg 26%
    13:00 +4°C° 0 mm 1 mps 690 mmHg 26%
    14:00 +4°C° 0 mm 1 mps 689 mmHg 25%
    15:00 +4°C° 0 mm 1 mps 689 mmHg 25%
    16:00 +3°C° 0 mm 1 mps 689 mmHg 28%
    17:00 +2°C° 0 mm 1 mps 690 mmHg 31%
    18:00 +1°C° 0 mm 1 mps 690 mmHg 34%
    19:00 -2°C° 0 mm 2 mps 690 mmHg 34%
    20:00 -2°C° 0 mm 2 mps 690 mmHg 34%
    21:00 -2°C° 0 mm 2 mps 691 mmHg 34%
    22:00 -3°C° 0 mm 2 mps 691 mmHg 34%
    23:00 -3°C° 0 mm 2 mps 691 mmHg 34%

    22 January, Tuesday

    Time Temperature Precipitation Wind Pressure Humidity
    00:00 -3°C° 0 mm 2 mps 691 mmHg 34%
    01:00 -3°C° 0 mm 2 mps 691 mmHg 34%
    02:00 -3°C° 0 mm 2 mps 691 mmHg 34%
    03:00 -4°C° 0 mm 2 mps 691 mmHg 34%
    04:00 -4°C° 0 mm 2 mps 691 mmHg 34%
    05:00 -4°C° 0 mm 2 mps 690 mmHg 34%
    06:00 -4°C° 0 mm 2 mps 690 mmHg 34%
    07:00 -3°C° 0 mm 2 mps 691 mmHg 33%
    08:00 -2°C° 0 mm 2 mps 691 mmHg 32%
    09:00 -1°C° 0 mm 2 mps 691 mmHg 31%
    10:00 +1°C° 0 mm 2 mps 691 mmHg 30%
    11:00 +3°C° 0 mm 1 mps 690 mmHg 29%
    12:00 +5°C° 0 mm 1 mps 690 mmHg 28%
    13:00 +5°C° 0 mm 1 mps 689 mmHg 28%
    14:00 +5°C° 0 mm 1 mps 689 mmHg 29%
    15:00 +6°C° 0 mm 1 mps 689 mmHg 30%
    16:00 +4°C° 0 mm 1 mps 689 mmHg 33%
    17:00 +3°C° 0 mm 1 mps 689 mmHg 37%
    18:00 +2°C° 0 mm 1 mps 690 mmHg 41%
    19:00 +1°C° 0 mm 1 mps 690 mmHg 41%
    20:00 -1°C° 0 mm 2 mps 690 mmHg 41%
    21:00 -1°C° 0 mm 2 mps 690 mmHg 41%
    22:00 -2°C° 0 mm 2 mps 690 mmHg 41%
    23:00 0°C° 0 mm 1 mps 690 mmHg 41%
    Show more